| time (UTC) | temp F | wind direction | speed knots | gust knots | rain 1hr in | rain 24hr in | rain mn in | humidity % | barometer mb |
| 20260510073009 | 69 | 319 | 0.0 | 2.6 | 0.00 | 0.00 | 0.00 | 94 | 1014.8 |
| 20260510072509 | 69 | 311 | 1.7 | 3.5 | 0.00 | 0.00 | 0.00 | 94 | 1014.9 |
| 20260510072005 | 69 | 325 | 2.6 | 3.5 | 0.00 | 0.00 | 0.00 | 94 | 1014.7 |
| 20260510071513 | 68 | 300 | 2.6 | 3.5 | 0.00 | 0.00 | 0.00 | 94 | 1014.7 |
| 20260510071007 | 68 | 71 | 0.0 | 2.6 | 0.00 | 0.00 | 0.00 | 94 | 1014.1 |
| 20260510070505 | 68 | 101 | 0.9 | 5.2 | 0.00 | 0.00 | 0.00 | 94 | 1013.9 |
| 20260510070003 | 68 | 108 | 0.9 | 5.2 | 0.00 | 0.00 | 0.00 | 94 | 1014.1 |
| 20260510065504 | 68 | 86 | 4.3 | 5.2 | 0.00 | 0.00 | 0.00 | 94 | 1014.0 |
| 20260510065003 | 68 | 309 | 0.9 | 1.7 | 0.00 | 0.00 | 0.00 | 94 | 1015.0 |
| 20260510064508 | 68 | 34 | 0.0 | 0.9 | 0.00 | 0.00 | 0.00 | 94 | 1015.0 |
| 20260510064003 | 68 | 34 | 0.0 | 1.7 | 0.00 | 0.00 | 0.00 | 94 | 1014.9 |
| 20260510063504 | 68 | 34 | 0.0 | 1.7 | 0.00 | 0.00 | 0.00 | 94 | 1014.7 |
| 20260510063009 | 68 | 34 | 0.0 | 1.7 | 0.00 | 0.00 | 0.00 | 94 | 1014.7 |
| 20260510062505 | 68 | 34 | 0.0 | 1.7 | 0.00 | 0.00 | 0.00 | 94 | 1014.8 |
| 20260510062009 | 68 | 34 | 0.0 | 1.7 | 0.00 | 0.00 | 0.00 | 94 | 1014.8 |
| 20260510061512 | 68 | 44 | 0.9 | 1.7 | 0.00 | 0.00 | 0.00 | 94 | 1014.7 |
| 20260510061004 | 68 | 43 | 0.0 | 1.7 | 0.00 | 0.00 | 0.00 | 94 | 1014.8 |
| 20260510060507 | 68 | 121 | 0.0 | 1.7 | 0.00 | 0.00 | 0.00 | 94 | 1014.9 |
| 20260510060024 | 68 | 145 | 0.0 | 1.7 | 0.00 | 0.00 | 0.00 | 94 | 1015.0 |
| 20260510055506 | 68 | 145 | 0.0 | 1.7 | 0.00 | 0.00 | 0.00 | 94 | 1014.9 |
| 20260510055003 | 68 | 141 | 0.0 | 1.7 | 0.00 | 0.00 | 0.00 | 94 | 1014.9 |
| 20260510054504 | 68 | 145 | 0.0 | 1.7 | 0.00 | 0.00 | 0.00 | 94 | 1015.0 |
| 20260510054004 | 68 | 105 | 0.9 | 1.7 | 0.00 | 0.00 | 0.00 | 94 | 1015.0 |
| 20260510053505 | 68 | 41 | 0.0 | 1.7 | 0.00 | 0.00 | 0.00 | 94 | 1015.2 |
| 20260510053008 | 68 | 41 | 0.0 | 1.7 | 0.00 | 0.00 | 0.00 | 94 | 1015.3 |
| 20260510052504 | 68 | 41 | 0.0 | 0.9 | 0.00 | 0.00 | 0.00 | 94 | 1015.3 |
| 20260510052004 | 68 | 41 | 0.0 | 1.7 | 0.00 | 0.00 | 0.00 | 94 | 1015.3 |
| 20260510051511 | 68 | 41 | 0.0 | 1.7 | 0.00 | 0.00 | 0.00 | 94 | 1015.3 |
| 20260510051009 | 68 | 41 | 0.0 | 0.9 | 0.00 | 0.00 | 0.00 | 94 | 1015.5 |
| 20260510050504 | 68 | 41 | 0.0 | 0.9 | 0.00 | 0.00 | 0.00 | 94 | 1015.5 |
| 20260510050015 | 68 | 41 | 0.0 | 0.9 | 0.00 | 0.00 | 0.00 | 94 | 1015.6 |
| 20260510045511 | 68 | 41 | 0.0 | 1.7 | 0.00 | 0.00 | 0.00 | 94 | 1015.6 |
| 20260510045009 | 68 | 41 | 0.0 | 1.7 | 0.00 | 0.00 | 0.00 | 94 | 1015.7 |
| 20260510044530 | 69 | 41 | 0.0 | 1.7 | 0.00 | 0.00 | 0.00 | 94 | 1015.8 |
| 20260510044009 | 69 | 41 | 0.0 | 1.7 | 0.00 | 0.00 | 0.00 | 94 | 1015.7 |
| 20260510043504 | 69 | 41 | 0.0 | 1.7 | 0.00 | 0.00 | 0.00 | 94 | 1015.9 |
| 20260510043008 | 69 | 41 | 0.0 | 0.9 | 0.00 | 0.00 | 0.00 | 94 | 1015.8 |
| 20260510042503 | 69 | 41 | 0.0 | 1.7 | 0.00 | 0.00 | 0.00 | 94 | 1015.6 |
| 20260510042002 | 69 | 41 | 0.0 | 1.7 | 0.00 | 0.00 | 0.00 | 94 | 1015.6 |
| 20260510041513 | 69 | 41 | 0.0 | 1.7 | 0.00 | 0.00 | 0.00 | 94 | 1015.7 |
| 20260510041004 | 69 | 41 | 0.0 | 0.9 | 0.00 | 0.00 | 0.00 | 94 | 1015.6 |
| 20260510040508 | 69 | 41 | 0.0 | 1.7 | 0.00 | 0.00 | 0.00 | 94 | 1015.6 |
| 20260510040013 | 69 | 41 | 0.0 | 1.7 | 0.00 | 0.00 | 0.00 | 94 | 1015.6 |
| 20260510035504 | 69 | 41 | 0.0 | 1.7 | 0.00 | 0.00 | 0.00 | 94 | 1015.7 |
| 20260510035009 | 69 | 41 | 0.0 | 1.7 | 0.00 | 0.00 | 0.00 | 94 | 1015.6 |
| 20260510034521 | 69 | 41 | 0.0 | 1.7 | 0.00 | 0.00 | 0.00 | 94 | 1015.6 |
| 20260510034009 | 69 | 41 | 0.0 | 1.7 | 0.00 | 0.01 | 0.00 | 94 | 1015.6 |
| 20260510033511 | 69 | 41 | 0.0 | 1.7 | 0.00 | 0.01 | 0.00 | 94 | 1015.5 |
| 20260510033023 | 69 | 41 | 0.9 | 1.7 | 0.00 | 0.01 | 0.00 | 94 | 1015.5 |
| 20260510032507 | 69 | 202 | 0.0 | 2.6 | 0.00 | 0.01 | 0.00 | 94 | 1015.7 |
| 20260510032004 | 69 | 202 | 0.9 | 2.6 | 0.00 | 0.01 | 0.00 | 94 | 1015.8 |
| 20260510031512 | 69 | 209 | 1.7 | 1.7 | 0.00 | 0.01 | 0.00 | 94 | 1015.8 |
| 20260510031003 | 69 | 252 | 1.7 | 1.7 | 0.00 | 0.01 | 0.00 | 94 | 1015.6 |
| 20260510030505 | 69 | 127 | 0.0 | 1.7 | 0.00 | 0.01 | 0.00 | 94 | 1015.5 |
| 20260510030014 | 69 | 68 | 0.9 | 1.7 | 0.00 | 0.01 | 0.00 | 94 | 1015.3 |
| 20260510025508 | 69 | 1 | 0.9 | 1.7 | 0.00 | 0.01 | 0.00 | 94 | 1015.2 |
| 20260510025009 | 69 | 8 | 0.9 | 1.7 | 0.00 | 0.01 | 0.00 | 94 | 1015.1 |
| 20260510024518 | 69 | 190 | 0.0 | 1.7 | 0.00 | 0.01 | 0.00 | 94 | 1015.2 |
| 20260510024007 | 69 | 190 | 0.0 | 1.7 | 0.00 | 0.01 | 0.00 | 94 | 1015.2 |
| 20260510023507 | 69 | 190 | 0.0 | 1.7 | 0.00 | 0.01 | 0.00 | 94 | 1015.2 |
| 20260510023024 | 69 | 190 | 0.0 | 0.9 | 0.00 | 0.01 | 0.00 | 94 | 1015.0 |
| 20260510022510 | 69 | 190 | 0.0 | 0.9 | 0.00 | 0.01 | 0.00 | 94 | 1015.0 |
| 20260510022010 | 69 | 190 | 0.0 | 0.9 | 0.00 | 0.01 | 0.00 | 94 | 1014.9 |
| 20260510021526 | 69 | 190 | 0.0 | 0.0 | 0.00 | 0.01 | 0.00 | 94 | 1015.0 |
| 20260510021004 | 69 | 190 | 0.0 | 1.7 | 0.00 | 0.01 | 0.00 | 94 | 1014.9 |
| 20260510020504 | 69 | 190 | 0.0 | 1.7 | 0.00 | 0.02 | 0.00 | 94 | 1014.8 |
| 20260510020012 | 69 | 190 | 0.0 | 1.7 | 0.00 | 0.02 | 0.00 | 94 | 1014.9 |
| 20260510015504 | 69 | 190 | 0.9 | 1.7 | 0.00 | 0.02 | 0.00 | 94 | 1014.9 |
| 20260510015006 | 69 | 183 | 0.0 | 1.7 | 0.00 | 0.02 | 0.00 | 94 | 1014.8 |
| 20260510014519 | 69 | 183 | 0.0 | 1.7 | 0.00 | 0.02 | 0.00 | 94 | 1014.8 |
| 20260510014009 | 69 | 207 | 0.0 | 1.7 | 0.00 | 0.02 | 0.00 | 94 | 1014.8 |
| 20260510013509 | 69 | 163 | 0.9 | 2.6 | 0.00 | 0.02 | 0.00 | 94 | 1014.8 |
| 20260510012503 | 69 | 197 | 1.7 | 2.6 | 0.00 | 0.02 | 0.00 | 93 | 1014.9 |
| 20260510012004 | 69 | 203 | 1.7 | 2.6 | 0.00 | 0.02 | 0.00 | 94 | 1014.9 |
| 20260510011507 | 69 | 218 | 0.9 | 1.7 | 0.00 | 0.02 | 0.00 | 93 | 1014.9 |
| 20260510011001 | 69 | 356 | 0.0 | 1.7 | 0.00 | 0.02 | 0.00 | 93 | 1014.7 |
| 20260510010501 | 69 | 354 | 0.9 | 1.7 | 0.00 | 0.02 | 0.00 | 93 | 1014.6 |
| 20260510010001 | 69 | 333 | 0.9 | 1.7 | 0.00 | 0.02 | 0.00 | 93 | 1014.7 |
| 20260510005503 | 69 | 278 | 0.9 | 1.7 | 0.00 | 0.02 | 0.00 | 93 | 1014.6 |
| 20260510005003 | 69 | 255 | 0.0 | 1.7 | 0.00 | 0.02 | 0.00 | 93 | 1014.5 |
| 20260510004503 | 69 | 255 | 0.0 | 1.7 | 0.00 | 0.02 | 0.00 | 93 | 1014.4 |
| 20260510004005 | 69 | 255 | 0.0 | 1.7 | 0.00 | 0.02 | 0.00 | 93 | 1014.5 |
| 20260510003502 | 69 | 242 | 0.0 | 1.7 | 0.00 | 0.02 | 0.00 | 93 | 1014.5 |
| 20260510003004 | 69 | 231 | 0.9 | 1.7 | 0.00 | 0.02 | 0.00 | 93 | 1014.5 |
| 20260510002502 | 69 | 222 | 1.7 | 1.7 | 0.00 | 0.02 | 0.00 | 93 | 1014.5 |
| 20260510001006 | 69 | 155 | 0.9 | 1.7 | 0.00 | 0.02 | 0.00 | 93 | 1014.5 |
| 20260510000504 | 69 | 159 | 0.0 | 2.6 | 0.00 | 0.02 | 0.00 | 93 | 1014.3 |
| 20260509235501 | 69 | 181 | 2.6 | 3.5 | 0.00 | 0.02 | 0.00 | 93 | 1014.5 |
| 20260509235003 | 69 | 139 | 1.7 | 4.3 | 0.00 | 0.02 | 0.00 | 93 | 1014.5 |
| 20260509234502 | 70 | 162 | 1.7 | 4.3 | 0.00 | 0.02 | 0.00 | 93 | 1014.5 |
| 20260509234003 | 70 | 186 | 2.6 | 4.3 | 0.00 | 0.02 | 0.00 | 93 | 1014.6 |
| 20260509233507 | 70 | 198 | 3.5 | 3.5 | 0.00 | 0.02 | 0.00 | 93 | 1014.7 |
| 20260509233003 | 70 | 198 | 2.6 | 3.5 | 0.00 | 0.02 | 0.00 | 93 | 1014.7 |
| 20260509232503 | 70 | 219 | 2.6 | 2.6 | 0.00 | 0.02 | 0.00 | 93 | 1014.8 |
| 20260509232004 | 70 | 191 | 1.7 | 2.6 | 0.00 | 0.02 | 0.00 | 93 | 1014.6 |
| 20260509231503 | 70 | 235 | 0.9 | 2.6 | 0.00 | 0.02 | 0.00 | 93 | 1014.7 |
| 20260509231003 | 70 | 184 | 1.7 | 2.6 | 0.00 | 0.02 | 0.00 | 93 | 1014.6 |
| 20260509225504 | 70 | 188 | 1.7 | 2.6 | 0.00 | 0.02 | 0.00 | 93 | 1014.7 |
| 20260509225010 | 70 | 239 | 0.9 | 2.6 | 0.00 | 0.02 | 0.00 | 93 | 1014.6 |
| 20260509224502 | 70 | 226 | 0.9 | 2.6 | 0.00 | 0.02 | 0.00 | 93 | 1014.7 |
| 20260509224002 | 70 | 269 | 0.9 | 2.6 | 0.00 | 0.02 | 0.00 | 93 | 1014.6 |
| 20260509223505 | 70 | 309 | 0.9 | 1.7 | 0.00 | 0.02 | 0.00 | 93 | 1014.5 |
| 20260509223003 | 70 | 260 | 0.0 | 1.7 | 0.00 | 0.02 | 0.00 | 93 | 1014.4 |
| 20260509221009 | 70 | 180 | 0.9 | 1.7 | 0.00 | 0.02 | 0.00 | 93 | 1014.1 |
| 20260509220503 | 70 | 182 | 0.9 | 1.7 | 0.00 | 0.02 | 0.00 | 93 | 1014.1 |
| 20260509215504 | 70 | 181 | 0.0 | 2.6 | 0.00 | 0.02 | 0.00 | 93 | 1014.1 |
| 20260509214007 | 69 | 168 | 0.9 | 1.7 | 0.00 | 0.02 | 0.00 | 93 | 1014.0 |
| 20260509213503 | 69 | 108 | 0.0 | 3.5 | 0.00 | 0.02 | 0.00 | 92 | 1014.0 |
| 20260509213004 | 70 | 75 | 1.7 | 3.5 | 0.00 | 0.02 | 0.00 | 93 | 1013.9 |
| 20260509212502 | 70 | 80 | 0.0 | 2.6 | 0.00 | 0.02 | 0.00 | 93 | 1014.0 |
| 20260509212007 | 70 | 169 | 0.9 | 2.6 | 0.00 | 0.02 | 0.00 | 93 | 1013.9 |
| 20260509204514 | 69 | 15 | 2.6 | 6.1 | 0.00 | 0.02 | 0.00 | 92 | 1014.1 |
| 20260509204007 | 69 | 1 | 3.5 | 5.2 | 0.00 | 0.02 | 0.00 | 92 | 1014.2 |
| 20260509202002 | 69 | 355 | 2.6 | 5.2 | 0.00 | 0.02 | 0.00 | 93 | 1014.4 |
| 20260509201503 | 69 | 16 | 2.6 | 7.0 | 0.00 | 0.02 | 0.00 | 93 | 1014.4 |
| 20260509201004 | 69 | 355 | 5.2 | 7.0 | 0.00 | 0.02 | 0.00 | 92 | 1014.6 |
| 20260509200503 | 69 | 3 | 4.3 | 5.2 | 0.00 | 0.02 | 0.00 | 92 | 1014.6 |
| 20260509194008 | 69 | 353 | 6.1 | 9.6 | 0.00 | 0.02 | 0.00 | 91 | 1014.7 |
| 20260509191008 | 70 | 326 | 4.3 | 10.4 | 0.00 | 0.02 | 0.00 | 91 | 1014.7 |
| 20260509190503 | 70 | 352 | 4.3 | 13.9 | 0.00 | 0.02 | 0.00 | 91 | 1014.6 |
| 20260509190006 | 70 | 359 | 7.0 | 17.4 | 0.00 | 0.02 | 0.00 | 90 | 1014.6 |
| 20260509185503 | 71 | 359 | 10.4 | 17.4 | 0.00 | 0.02 | 0.00 | 89 | 1014.4 |
| 20260509185002 | 73 | 360 | 10.4 | 16.5 | 0.00 | 0.02 | 0.00 | 88 | 1014.4 |
| 20260509183503 | 77 | 320 | 3.5 | 4.3 | 0.00 | 0.02 | 0.00 | 80 | 1014.1 |
| 20260509182507 | 78 | 321 | 2.6 | 6.1 | 0.00 | 0.02 | 0.00 | 80 | 1014.1 |
| 20260509181517 | 78 | 311 | 3.5 | 6.1 | 0.00 | 0.02 | 0.00 | 79 | 1014.2 |
| 20260509181008 | 78 | 287 | 2.6 | 6.1 | 0.00 | 0.02 | 0.00 | 79 | 1014.3 |
| 20260509180507 | 78 | 325 | 1.7 | 7.0 | 0.00 | 0.02 | 0.00 | 79 | 1014.3 |
| 20260509175503 | 79 | 330 | 1.7 | 5.2 | 0.00 | 0.02 | 0.00 | 77 | 1014.3 |
| 20260509175006 | 79 | 319 | 2.6 | 4.3 | 0.00 | 0.02 | 0.00 | 77 | 1014.4 |
| 20260509174506 | 78 | 272 | 2.6 | 4.3 | 0.00 | 0.02 | 0.00 | 77 | 1014.3 |
| 20260509174004 | 78 | 193 | 2.6 | 4.3 | 0.00 | 0.02 | 0.00 | 79 | 1014.5 |
| 20260509173503 | 78 | 180 | 2.6 | 7.0 | 0.00 | 0.02 | 0.00 | 79 | 1014.6 |
| 20260509171517 | 78 | 210 | 3.5 | 7.0 | 0.00 | 0.02 | 0.00 | 78 | 1014.7 |
| 20260509171006 | 78 | 198 | 3.5 | 7.0 | 0.00 | 0.02 | 0.00 | 78 | 1014.7 |
| 20260509164003 | 78 | 189 | 5.2 | 7.0 | 0.00 | 0.02 | 0.00 | 79 | 1014.5 |
| 20260509163503 | 78 | 187 | 5.2 | 6.1 | 0.00 | 0.02 | 0.00 | 79 | 1014.6 |
| 20260509163007 | 77 | 149 | 0.9 | 2.6 | 0.00 | 0.02 | 0.00 | 81 | 1014.7 |
| 20260509162502 | 76 | 290 | 0.9 | 1.7 | 0.00 | 0.02 | 0.00 | 80 | 1014.7 |
| 20260509162001 | 76 | 210 | 0.9 | 2.6 | 0.00 | 0.02 | 0.00 | 80 | 1014.8 |
| 20260509161503 | 76 | 333 | 1.7 | 4.3 | 0.00 | 0.02 | 0.00 | 81 | 1014.8 |
| 20260509161001 | 76 | 6 | 1.7 | 4.3 | 0.00 | 0.02 | 0.00 | 80 | 1014.9 |
| 20260509160504 | 76 | 60 | 2.6 | 6.1 | 0.00 | 0.02 | 0.00 | 80 | 1015.0 |
| 20260509160003 | 76 | 322 | 2.6 | 6.1 | 0.00 | 0.02 | 0.00 | 81 | 1015.0 |
| 20260509155503 | 75 | 216 | 1.7 | 3.5 | 0.00 | 0.02 | 0.00 | 81 | 1015.1 |
| 20260509155003 | 75 | 125 | 0.9 | 3.5 | 0.00 | 0.02 | 0.00 | 81 | 1014.9 |
| 20260509154507 | 75 | 290 | 1.7 | 4.3 | 0.00 | 0.02 | 0.00 | 81 | 1014.8 |
| 20260509154003 | 75 | 51 | 0.0 | 4.3 | 0.00 | 0.02 | 0.00 | 82 | 1014.8 |
| 20260509153503 | 74 | 105 | 1.7 | 5.2 | 0.00 | 0.02 | 0.00 | 83 | 1014.7 |
| 20260509153020 | 74 | 187 | 0.9 | 5.2 | 0.00 | 0.02 | 0.00 | 82 | 1014.6 |
| 20260509152504 | 74 | 148 | 1.7 | 4.3 | 0.00 | 0.02 | 0.00 | 84 | 1014.7 |
| 20260509152008 | 73 | 103 | 1.7 | 4.3 | 0.00 | 0.02 | 0.00 | 85 | 1014.7 |
| 20260509151508 | 72 | 152 | 1.7 | 3.5 | 0.00 | 0.02 | 0.00 | 85 | 1015.0 |
| 20260509151002 | 72 | 72 | 0.0 | 2.6 | 0.00 | 0.02 | 0.00 | 86 | 1015.2 |
| 20260509150503 | 72 | 51 | 1.7 | 2.6 | 0.00 | 0.02 | 0.00 | 87 | 1015.3 |
| 20260509150003 | 71 | 6 | 0.9 | 2.6 | 0.00 | 0.02 | 0.00 | 87 | 1015.3 |
| 20260509145503 | 71 | 68 | 0.9 | 3.5 | 0.00 | 0.02 | 0.00 | 87 | 1015.4 |
| 20260509145003 | 71 | 49 | 1.7 | 6.1 | 0.00 | 0.02 | 0.00 | 87 | 1015.5 |
| 20260509144512 | 71 | 17 | 3.5 | 6.1 | 0.00 | 0.02 | 0.00 | 88 | 1015.8 |
| 20260509144007 | 71 | 360 | 2.6 | 5.2 | 0.00 | 0.02 | 0.00 | 87 | 1015.9 |
| 20260509143504 | 71 | 344 | 3.5 | 5.2 | 0.00 | 0.02 | 0.00 | 87 | 1015.7 |
| 20260509143008 | 71 | 1 | 2.6 | 4.3 | 0.00 | 0.02 | 0.00 | 87 | 1015.6 |
| 20260509142508 | 71 | 1 | 2.6 | 3.5 | 0.00 | 0.02 | 0.00 | 87 | 1015.5 |
| 20260509142008 | 71 | 356 | 1.7 | 2.6 | 0.00 | 0.02 | 0.00 | 87 | 1015.5 |
| 20260509141516 | 71 | 335 | 1.7 | 2.6 | 0.00 | 0.02 | 0.00 | 87 | 1015.3 |
| 20260509141008 | 71 | 249 | 0.9 | 1.7 | 0.00 | 0.02 | 0.00 | 88 | 1015.3 |
| 20260509140503 | 71 | 302 | 0.9 | 1.7 | 0.00 | 0.02 | 0.00 | 89 | 1015.3 |
| 20260509140003 | 70 | 295 | 0.0 | 2.6 | 0.00 | 0.02 | 0.00 | 89 | 1015.3 |
| 20260509135502 | 70 | 307 | 0.0 | 2.6 | 0.00 | 0.02 | 0.00 | 89 | 1015.4 |
| 20260509135006 | 70 | 261 | 0.9 | 2.6 | 0.00 | 0.02 | 0.00 | 90 | 1015.3 |
| 20260509134503 | 70 | 355 | 1.7 | 4.3 | 0.00 | 0.02 | 0.00 | 91 | 1015.2 |
| 20260509133507 | 69 | 351 | 2.6 | 3.5 | 0.00 | 0.02 | 0.00 | 92 | 1015.2 |
| 20260509133007 | 69 | 359 | 1.7 | 2.6 | 0.00 | 0.02 | 0.00 | 92 | 1015.0 |
| 20260509132003 | 68 | 356 | 1.7 | 2.6 | 0.00 | 0.02 | 0.00 | 93 | 1015.0 |
| 20260509131512 | 68 | 360 | 0.9 | 2.6 | 0.00 | 0.02 | 0.00 | 93 | 1015.0 |
| 20260509131006 | 68 | 327 | 1.7 | 2.6 | 0.00 | 0.02 | 0.00 | 93 | 1015.1 |
| 20260509130504 | 68 | 274 | 0.9 | 2.6 | 0.00 | 0.02 | 0.00 | 93 | 1015.0 |
| 20260509125507 | 68 | 330 | 0.9 | 2.6 | 0.00 | 0.02 | 0.00 | 93 | 1014.8 |
| 20260509124505 | 68 | 356 | 0.0 | 1.7 | 0.00 | 0.02 | 0.00 | 93 | 1014.5 |
| 20260509124004 | 67 | 37 | 1.7 | 1.7 | 0.00 | 0.02 | 0.00 | 93 | 1014.3 |
| 20260509123503 | 67 | 131 | 0.0 | 1.7 | 0.00 | 0.02 | 0.00 | 93 | 1014.3 |
| 20260509123004 | 67 | 158 | 0.0 | 1.7 | 0.00 | 0.02 | 0.00 | 94 | 1014.2 |
| 20260509122504 | 67 | 297 | 0.0 | 1.7 | 0.00 | 0.02 | 0.00 | 93 | 1014.3 |
| 20260509122011 | 67 | 296 | 0.9 | 1.7 | 0.00 | 0.02 | 0.00 | 94 | 1014.4 |
| 20260509121512 | 67 | 345 | 0.9 | 1.7 | 0.00 | 0.02 | 0.00 | 93 | 1014.5 |
| 20260509121005 | 67 | 340 | 0.9 | 1.7 | 0.00 | 0.02 | 0.00 | 94 | 1014.5 |
| 20260509120507 | 67 | 359 | 0.9 | 1.7 | 0.00 | 0.02 | 0.00 | 94 | 1014.6 |
| 20260509120010 | 66 | 347 | 1.7 | 1.7 | 0.00 | 0.02 | 0.00 | 94 | 1014.5 |
| 20260509115506 | 66 | 359 | 0.0 | 1.7 | 0.00 | 0.02 | 0.00 | 93 | 1014.5 |
| 20260509115009 | 66 | 327 | 0.9 | 2.6 | 0.00 | 0.02 | 0.00 | 93 | 1014.6 |
| 20260509113503 | 66 | 289 | 0.9 | 1.7 | 0.00 | 0.02 | 0.00 | 94 | 1014.6 |
| 20260509113012 | 66 | 353 | 0.9 | 1.7 | 0.00 | 0.02 | 0.00 | 94 | 1014.4 |
| 20260509112503 | 66 | 1 | 1.7 | 2.6 | 0.00 | 0.02 | 0.00 | 94 | 1014.3 |
| 20260509112005 | 66 | 1 | 0.9 | 3.5 | 0.00 | 0.02 | 0.00 | 94 | 1014.3 |
| 20260509111507 | 66 | 359 | 1.7 | 3.5 | 0.00 | 0.02 | 0.00 | 93 | 1014.2 |
| 20260509111003 | 66 | 1 | 1.7 | 3.5 | 0.00 | 0.02 | 0.00 | 93 | 1014.2 |
| 20260509110502 | 66 | 359 | 2.6 | 3.5 | 0.00 | 0.02 | 0.00 | 93 | 1014.1 |
| 20260509110012 | 66 | 359 | 0.9 | 4.3 | 0.00 | 0.02 | 0.00 | 93 | 1014.1 |
| 20260509105505 | 65 | 1 | 2.6 | 4.3 | 0.00 | 0.02 | 0.00 | 93 | 1014.0 |
| 20260509105006 | 66 | 359 | 3.5 | 4.3 | 0.00 | 0.02 | 0.00 | 93 | 1013.9 |
| 20260509104533 | 65 | 188 | 0.0 | 1.7 | 0.00 | 0.02 | 0.00 | 93 | 1013.4 |
| 20260509104007 | 66 | 171 | 0.9 | 2.6 | 0.00 | 0.02 | 0.00 | 93 | 1013.4 |
| 20260509103507 | 66 | 315 | 2.6 | 2.6 | 0.00 | 0.02 | 0.00 | 93 | 1013.5 |
| 20260509103021 | 66 | 8 | 0.0 | 2.6 | 0.00 | 0.02 | 0.00 | 93 | 1013.2 |
| 20260509102507 | 66 | 77 | 0.0 | 3.5 | 0.00 | 0.02 | 0.00 | 93 | 1012.9 |
| 20260509102005 | 66 | 356 | 3.5 | 3.5 | 0.00 | 0.02 | 0.00 | 93 | 1013.2 |
| 20260509101509 | 66 | 115 | 0.0 | 6.1 | 0.00 | 0.02 | 0.00 | 93 | 1013.1 |
| 20260509101003 | 66 | 81 | 0.9 | 7.8 | 0.00 | 0.02 | 0.00 | 93 | 1013.1 |
| 20260509093502 | 66 | 165 | 1.7 | 4.3 | 0.00 | 0.02 | 0.00 | 93 | 1012.6 |
| 20260509093004 | 66 | 203 | 2.6 | 7.0 | 0.00 | 0.02 | 0.00 | 93 | 1012.7 |
| 20260509092505 | 66 | 196 | 3.5 | 7.0 | 0.00 | 0.02 | 0.00 | 93 | 1012.5 |
| 20260509092003 | 66 | 204 | 5.2 | 7.0 | 0.00 | 0.02 | 0.00 | 93 | 1012.4 |
| 20260509091506 | 66 | 181 | 4.3 | 6.1 | 0.00 | 0.02 | 0.00 | 93 | 1012.2 |
| 20260509091004 | 66 | 194 | 3.5 | 9.6 | 0.00 | 0.02 | 0.00 | 93 | 1012.2 |
| 20260509090506 | 66 | 208 | 3.5 | 12.2 | 0.00 | 0.02 | 0.00 | 93 | 1012.1 |
| 20260509090009 | 66 | 196 | 6.1 | 12.2 | 0.00 | 0.02 | 0.00 | 93 | 1011.9 |
| 20260509085505 | 66 | 188 | 6.1 | 9.6 | 0.00 | 0.02 | 0.00 | 93 | 1012.0 |
| 20260509085002 | 66 | 179 | 5.2 | 6.1 | 0.00 | 0.02 | 0.00 | 94 | 1012.5 |
| 20260509084503 | 66 | 207 | 2.6 | 5.2 | 0.00 | 0.02 | 0.00 | 94 | 1012.8 |
| 20260509084004 | 66 | 189 | 2.6 | 7.0 | 0.00 | 0.02 | 0.00 | 94 | 1012.8 |
| 20260509083502 | 66 | 186 | 3.5 | 10.4 | 0.00 | 0.02 | 0.00 | 94 | 1012.5 |
| 20260509083003 | 66 | 200 | 5.2 | 10.4 | 0.00 | 0.02 | 0.00 | 94 | 1012.3 |
| 20260509082503 | 66 | 179 | 6.1 | 10.4 | 0.00 | 0.02 | 0.00 | 94 | 1012.0 |
| 20260509082005 | 66 | 182 | 7.0 | 9.6 | 0.00 | 0.02 | 0.00 | 94 | 1012.2 |
| 20260509081504 | 66 | 153 | 5.2 | 7.0 | 0.00 | 0.02 | 0.00 | 94 | 1012.8 |
| 20260509081005 | 66 | 160 | 2.6 | 3.5 | 0.00 | 0.02 | 0.00 | 94 | 1013.5 |
| 20260509080504 | 66 | 311 | 0.9 | 3.5 | 0.00 | 0.02 | 0.00 | 94 | 1013.7 |
| 20260509080010 | 66 | 354 | 2.6 | 3.5 | 0.00 | 0.02 | 0.00 | 94 | 1013.8 |
| 20260509075504 | 66 | 351 | 2.6 | 3.5 | 0.00 | 0.02 | 0.00 | 94 | 1013.8 |
| 20260509075004 | 66 | 340 | 0.9 | 1.7 | 0.00 | 0.02 | 0.00 | 94 | 1013.7 |
| 20260509074512 | 66 | 309 | 1.7 | 2.6 | 0.00 | 0.02 | 0.00 | 94 | 1013.8 |
| 20260509074002 | 66 | 334 | 1.7 | 2.6 | 0.00 | 0.02 | 0.00 | 94 | 1013.8 |